OPS 4682 DEB, 18783

Orbit data source: Space-Track

OPS 4682 DEB, 18783 is space debris in LEO originally from a launch on Sat, 03 Apr 1965 UTC launched from the Air Force Western Test Range (AFWTR). Debris objects in space refer to the collection of defunct objects orbiting the Earth. Examples of debris include non-operational satellites, rocket bodies, and fragments generated from explosions, collisions, or faulty payload assembly.

Loading next visibility...
Identifier
18783, 1965-027AK
Orbit
LEO
Country
Flag of USUS
Related business
Manufacturer
Unknown
Mission
Spacecraft
Bus & Motor
Unknown
Mass
Unknown
Launch date (UTC)
1965-04-03 (61 years ago)
Launch vehicle
Unknown
Launch site
Air Force Western Test Range (AFWTR)
Object type
Payload
Rocket body
Debris
Shape & HBR
Unknown shape, 0.1 m
Radar Cross Section
Medium (>0.1 m² and <1 m²)

Expand to show TLE details & history
Last TLE update: 1 week ago

TLE from 1 week ago
0 OPS 4682 DEB
1 18783U 65027AK  26201.51343258  .00000952  00000-0  30970-2 0  9996
2 18783  90.2671  27.1490 0029501 114.7187 271.1555 13.00842024584819
Epoch: 2026-07-20T12:19Z
TLE epoch observation values (Epoch: 2026-07-20T12:19:20.574Z)
Latitude
25.56349°
Longitude
-96.11024°
Altitude
1,261.5 km
Speed
7.227 km/s
True Right ascension
01h 48m 05s
True Declination
25° 26' 19"
Sunlit
Object was in daylight at epoch
Visualization orbit readout
Latitude
Unknown
Longitude
Unknown
Altitude
Unknown
Speed
Unknown
Apparent Right ascension
Unknown
Apparent Declination
Unknown
Sunlit
N/A
Visualization observer readout
Local Sidereal Time
22:26:44
Azimuth
Unknown
Elevation
Unknown
Doppler factor
Unknown
Orbital elements
Apogee altitude
1,278.436 km
Perigee altitude
1,233.394 km
Semi-major axis
7,634.052 km
Eccentricity
0.00295
Inclination
90.2671°
RAAN
27.149°
Arg. of periapsis
114.7187°
True anomaly
270.81749°
Mean anomaly
271.1555°
Eccentric anomaly
270.9865°
Mean motion
3.25395 °/min
Orbital period
110.63 mins
BSTAR
0.003097
Loading maneuver chart data...
Computing Atmospheric mass density...
Loading historical data...
Loading historical data...
Loading historical data...
Loading historical data...
Loading historical data...
Loading historical data...
Loading historical data...

Documentation

Showing up to 5 results
|